TimeAEST,TemperatureF,Dew PointF,Humidity,Sea Level PressureIn,VisibilityMPH,Wind Direction,Wind SpeedMPH,Gust SpeedMPH,PrecipitationIn,Events,Conditions,WindDirDegrees,DateUTC
12:00 AM,57.2,55.4,94,30.18,6.2,WSW,1.2,-,N/A,,Scattered Clouds,240,2013-07-18 14:00:00
12:30 AM,57.2,55.4,94,30.18,6.2,SW,2.3,-,N/A,,Scattered Clouds,230,2013-07-18 14:30:00
1:00 AM,57.2,55.4,94,30.18,6.2,WSW,3.5,-,N/A,,Scattered Clouds,240,2013-07-18 15:00:00
1:30 AM,57.2,55.4,94,30.18,6.2,SW,3.5,-,N/A,,Mostly Cloudy,220,2013-07-18 15:30:00
2:00 AM,57.2,55.4,94,30.15,6.2,WSW,1.2,-,N/A,,Scattered Clouds,240,2013-07-18 16:00:00
2:30 AM,55.4,55.4,100,30.15,6.2,Calm,Calm,-,N/A,,Scattered Clouds,0,2013-07-18 16:30:00
3:00 AM,57,56,97,30.16,,WSW,4.6,,,,,240,2013-07-18 17:00:00
3:00 AM,57.2,57.2,100,30.15,6.2,WSW,4.6,-,N/A,,Mostly Cloudy,240,2013-07-18 17:00:00
3:30 AM,57.2,57.2,100,30.15,6.2,SW,3.5,-,N/A,,Mostly Cloudy,220,2013-07-18 17:30:00
4:00 AM,57.2,57.2,100,30.12,6.2,WSW,4.6,-,N/A,,Mostly Cloudy,240,2013-07-18 18:00:00
4:30 AM,57.2,57.2,100,30.12,6.2,WSW,4.6,-,N/A,,Mostly Cloudy,240,2013-07-18 18:30:00
5:00 AM,57.2,57.2,100,30.15,6.2,South,3.5,-,N/A,,Scattered Clouds,190,2013-07-18 19:00:00
5:30 AM,57.2,57.2,100,30.15,6.2,South,2.3,-,N/A,,Mostly Cloudy,190,2013-07-18 19:30:00
6:00 AM,59,58,93,30.16,,Calm,Calm,,,,Overcast,,2013-07-18 20:00:00
6:00 AM,59.0,57.2,94,30.15,6.2,Calm,Calm,-,N/A,,Mostly Cloudy,0,2013-07-18 20:00:00
6:30 AM,59.0,57.2,94,30.15,6.2,WSW,4.6,-,N/A,,Mostly Cloudy,240,2013-07-18 20:30:00
7:00 AM,59.0,57.2,94,30.18,6.2,South,1.2,-,N/A,,Mostly Cloudy,190,2013-07-18 21:00:00
7:30 AM,60.8,59.0,94,30.18,6.2,SW,2.3,-,N/A,,Mostly Cloudy,230,2013-07-18 21:30:00
8:00 AM,62.6,60.8,94,30.18,6.2,SSE,2.3,-,N/A,,Scattered Clouds,150,2013-07-18 22:00:00
8:30 AM,62.6,60.8,94,30.18,6.2,SSW,1.2,-,N/A,,Mostly Cloudy,200,2013-07-18 22:30:00
9:00 AM,64.4,62.6,94,30.18,6.2,Calm,Calm,-,N/A,,Scattered Clouds,0,2013-07-18 23:00:00
9:30 AM,66.2,60.8,83,30.18,6.2,NNW,4.6,-,N/A,,Mostly Cloudy,330,2013-07-18 23:30:00
10:00 AM,66.2,59.0,78,30.15,6.2,NNE,6.9,-,N/A,,Mostly Cloudy,30,2013-07-19 00:00:00
10:30 AM,68.0,59.0,73,30.15,6.2,North,5.8,-,N/A,,Mostly Cloudy,360,2013-07-19 00:30:00
11:00 AM,68.0,59.0,73,30.15,6.2,North,6.9,-,N/A,,Mostly Cloudy,350,2013-07-19 01:00:00
11:30 AM,68.0,60.8,78,30.12,5.6,North,6.9,-,N/A,,Overcast,360,2013-07-19 01:30:00
12:00 PM,69,60,64,30.13,,North,5.8,,,,,0,2013-07-19 02:00:00
12:00 PM,68.0,59.0,73,30.12,6.2,North,5.8,-,N/A,,Mostly Cloudy,360,2013-07-19 02:00:00
12:30 PM,69.8,59.0,68,30.09,6.2,North,8.1,-,N/A,,Unknown,350,2013-07-19 02:30:00
1:00 PM,69.8,60.8,73,30.09,6.2,North,6.9,-,N/A,,Unknown,10,2013-07-19 03:00:00
1:30 PM,69.8,60.8,73,30.06,6.2,North,8.1,-,N/A,,Unknown,360,2013-07-19 03:30:00
2:00 PM,69.8,59.0,68,30.06,6.2,North,8.1,-,N/A,,Scattered Clouds,10,2013-07-19 04:00:00
2:30 PM,68.0,60.8,78,30.06,6.2,NNE,9.2,-,N/A,,Scattered Clouds,20,2013-07-19 04:30:00
3:00 PM,69,61,69,30.07,,North,10.4,,,,,10,2013-07-19 05:00:00
3:00 PM,69.8,60.8,73,30.06,6.2,North,10.4,-,N/A,,Mostly Cloudy,10,2013-07-19 05:00:00
3:30 PM,69.8,60.8,73,30.06,6.2,North,10.4,-,N/A,,Scattered Clouds,10,2013-07-19 05:30:00
4:00 PM,69.8,62.6,78,30.06,6.2,North,8.1,-,N/A,,Scattered Clouds,10,2013-07-19 06:00:00
4:30 PM,68.0,60.8,78,30.06,6.2,North,6.9,-,N/A,,Mostly Cloudy,350,2013-07-19 06:30:00
5:00 PM,68.0,60.8,78,30.04,6.2,North,12.7,-,N/A,,Mostly Cloudy,10,2013-07-19 07:00:00
5:30 PM,68.0,60.8,78,30.04,6.2,North,10.4,-,N/A,,Mostly Cloudy,360,2013-07-19 07:30:00
6:00 PM,68.0,60.8,78,30.04,6.2,North,12.7,-,N/A,,Mostly Cloudy,360,2013-07-19 08:00:00
6:30 PM,66.2,62.6,88,30.06,6.2,NNW,9.2,-,N/A,,Overcast,340,2013-07-19 08:30:00
7:00 PM,68.0,60.8,78,30.06,6.2,North,10.4,-,N/A,,Overcast,350,2013-07-19 09:00:00
7:30 PM,68.0,62.6,83,30.06,6.2,North,15.0,-,N/A,,Overcast,360,2013-07-19 09:30:00
8:00 PM,68.0,60.8,78,30.06,6.2,North,10.4,-,N/A,,Overcast,360,2013-07-19 10:00:00
8:27 PM,66.2,62.6,88,30.06,3.7,North,15.0,-,N/A,,Overcast,350,2013-07-19 10:27:00
8:30 PM,66.2,62.6,88,30.06,3.1,North,13.8,-,N/A,,Overcast,350,2013-07-19 10:30:00
9:00 PM,65,62,89,30.08,2,NNW,9.2,,,,Overcast,340,2013-07-19 11:00:00
9:00 PM,64.4,62.6,94,30.06,-9999.0,NNW,9.2,-,N/A,,Overcast,330,2013-07-19 11:00:00
9:17 PM,64.4,62.6,94,30.06,5.0,NW,4.6,-,N/A,,Overcast,310,2013-07-19 11:17:00
9:30 PM,64.4,62.6,94,30.06,6.2,WNW,3.5,-,N/A,,Overcast,290,2013-07-19 11:30:00
10:00 PM,64.4,62.6,94,30.06,6.2,SE,2.3,-,N/A,,Overcast,140,2013-07-19 12:00:00
10:08 PM,64.4,62.6,94,30.06,3.7,West,4.6,-,N/A,,Overcast,260,2013-07-19 12:08:00
10:30 PM,64.4,62.6,94,30.06,3.1,WNW,6.9,-,N/A,,Overcast,300,2013-07-19 12:30:00
11:00 PM,64.4,62.6,94,30.06,1.7,NW,9.2,-,N/A,,Overcast,310,2013-07-19 13:00:00
11:29 PM,64.4,62.6,94,30.04,3.7,NW,6.9,-,N/A,,Overcast,320,2013-07-19 13:29:00
11:30 PM,64.4,62.6,94,30.04,3.1,NW,6.9,-,N/A,,Overcast,320,2013-07-19 13:30:00
11:52 PM,64.4,62.6,94,30.04,6.2,WNW,5.8,-,N/A,,Overcast,290,2013-07-19 13:52:00
11:55 PM,64.4,62.6,94,30.04,3.7,WNW,5.8,-,N/A,,Overcast,290,2013-07-19 13:55:00